Lamar, CO

10:57 AM MDT on April 24, 2017 (GMT -0600)
Lamar Municipal

Weather History for KLAA - October, 2012

Change the Weather History Date:

Sunday, October 7, 2012

  Actual Average Record
Temperature  
Mean Temperature 44 °F 57 °F  
Max Temperature 56 °F 74 °F 98 °F (1934)
Min Temperature 31 °F 39 °F 23 °F (1952)
Degree Days  
Heating Degree Days 21 9  
Month to date heating degree days 98 53  
Since 1 July heating degree days 147 136  
Cooling Degree Days 0 1  
Month to date cooling degree days 1 7  
Year to date cooling degree days 1626 1119  
Moisture  
Dew Point 34 °F    
Average Humidity 67    
Maximum Humidity 92    
Minimum Humidity 41    
Precipitation  
Precipitation 0.00 in 0.03 in 0.75 in (1946)
Month to date precipitation 0.04  
Year to date precipitation 5.54  
Sea Level Pressure  
Sea Level Pressure 30.17 in    
Wind  
Wind Speed 5 mph (SSE)    
Max Wind Speed 15 mph    
Max Gust Speed 18 mph    
Visibility 10 miles    
Events      
T = Trace of Precipitation, MM = Missing Value Source: NWS Daily Summary

Daily Weather History Graph

Daily Weather History Graph

Search for Another Location

Airport or City:

Trip Planner

Search our weather history database for the weather conditions in past years. The results will help you decide how hot, cold, wet, or windy it might be!

Date:

Astronomy

Oct. 07, 2012 Rise Set
Actual Time 6:52 AM MDT 6:23 PM MDT
Civil Twilight 6:26 AM MDT 6:50 PM MDT
Nautical Twilight 5:55 AM MDT 7:20 PM MDT
Astronomical Twilight 5:24 AM MDT 7:51 PM MDT
Moon 11:41 PM MDT (10/7) 1:27 PM MDT (10/7)
Length of Visible Light 12h 24m
Length of Day
11h 31m
Waning Gibbous, 55% of the Moon is Illuminated
Oct 7
Waning Gibbous
Oct 8
Last Quarter
Oct 15
New
Oct 21
First Quarter
Oct 29
Full

Hourly Weather History & Observations

Time (MDT) Temp. Windchill Dew Point Humidity Pressure Visibility Wind Dir Wind Speed Gust Speed Precip Events Conditions
12:33 AM 39.2 °F 34.2 °F 35.6 °F 87% 30.27 in 10.0 mi ESE 6.9 mph - N/A   Overcast
12:53 AM 39.0 °F 34.8 °F 36.0 °F 89% 30.28 in 10.0 mi ESE 5.8 mph - N/A   Overcast
1:51 AM 39.2 °F 35.0 °F 35.6 °F 87% 30.26 in 10.0 mi SE 5.8 mph - N/A   Overcast
1:53 AM 39.0 °F 34.8 °F 36.0 °F 89% 30.27 in 10.0 mi SE 5.8 mph - N/A   Overcast
2:25 AM 39.2 °F 34.2 °F 35.6 °F 87% 30.25 in 10.0 mi SSE 6.9 mph - N/A   Overcast
2:53 AM 39.0 °F 36.8 °F 36.0 °F 89% 30.24 in 10.0 mi SE 3.5 mph - N/A   Overcast
3:16 AM 39.2 °F 35.9 °F 35.6 °F 87% 30.22 in 10.0 mi SE 4.6 mph - N/A   Overcast
3:53 AM 39.0 °F - 36.0 °F 89% 30.23 in 10.0 mi Calm Calm - N/A   Overcast
4:23 AM 39.2 °F 37.0 °F 35.6 °F 87% 30.23 in 10.0 mi SSW 3.5 mph - N/A   Overcast
4:43 AM 37.4 °F 30.8 °F 33.8 °F 87% 30.22 in 10.0 mi South 9.2 mph - N/A   Overcast
4:53 AM 37.9 °F 32.1 °F 34.0 °F 86% 30.23 in 10.0 mi South 8.1 mph - N/A   Overcast
5:53 AM 37.9 °F 30.9 °F 34.0 °F 86% 30.22 in 10.0 mi SSE 10.4 mph - N/A   Scattered Clouds
6:53 AM 37.0 °F 29.8 °F 35.1 °F 93% 30.20 in 10.0 mi SE 10.4 mph - N/A   Mostly Cloudy
7:53 AM 37.9 °F 31.5 °F 35.1 °F 89% 30.21 in 10.0 mi SSE 9.2 mph - N/A   Overcast
8:24 AM 39.2 °F 33.0 °F 35.6 °F 87% 30.22 in 10.0 mi South 9.2 mph - N/A   Overcast
8:53 AM 39.9 °F 32.9 °F 35.1 °F 83% 30.23 in 10.0 mi South 11.5 mph - N/A   Overcast
9:53 AM 42.1 °F 36.1 °F 35.1 °F 76% 30.22 in 10.0 mi South 10.4 mph - N/A   Overcast
10:53 AM 45.0 °F 38.9 °F 36.0 °F 71% 30.19 in 10.0 mi South 12.7 mph - N/A   Overcast
11:53 AM 46.0 °F - 36.0 °F 68% 30.17 in 10.0 mi Calm Calm - N/A   Overcast
12:53 PM 50.0 °F - 36.0 °F 59% 30.14 in 10.0 mi WNW 9.2 mph - N/A   Overcast
1:53 PM 51.1 °F - 35.1 °F 54% 30.11 in 10.0 mi Variable 5.8 mph - N/A   Mostly Cloudy
2:53 PM 53.1 °F - 35.1 °F 50% 30.08 in 10.0 mi West 6.9 mph - N/A   Partly Cloudy
3:53 PM 54.0 °F - 32.0 °F 43% 30.05 in 10.0 mi SSE 3.5 mph - N/A   Clear
4:53 PM 54.0 °F - 30.0 °F 40% 30.03 in 10.0 mi Calm Calm - N/A   Clear
5:53 PM 54.0 °F - 30.0 °F 40% 30.03 in 10.0 mi SSE 4.6 mph - N/A   Clear
6:53 PM 46.9 °F - 32.0 °F 56% 30.05 in 10.0 mi SSE 3.5 mph - N/A   Clear
7:53 PM 39.0 °F 36.8 °F 32.0 °F 76% 30.09 in 10.0 mi South 3.5 mph - N/A   Clear
8:53 PM 36.0 °F 33.3 °F 30.9 °F 82% 30.10 in 10.0 mi SSW 3.5 mph - N/A   Clear
9:53 PM 34.0 °F 31.0 °F 30.9 °F 89% 30.10 in 10.0 mi SW 3.5 mph - N/A   Clear
10:53 PM 36.0 °F - 30.9 °F 82% 30.09 in 10.0 mi Calm Calm - N/A   Clear
11:53 PM 32.0 °F 27.5 °F 28.9 °F 88% 30.09 in 10.0 mi WSW 4.6 mph - N/A   Clear